This is the latest recevied weather packets stored in our database for station/object DL4MGC-10. If no packets are shown the sender has not sent any weather packets the latest 10 day(s).
| Time | Temp. | Humidity | Pressure | Rain* | Wind** | Luminosity | Snow |
|---|---|---|---|---|---|---|---|
| 1777464719 | 21.11° C | 38% | 1020.4 hPa | - | - | - | - |
| 1777463819 | 21.11° C | 39% | 1020.4 hPa | - | - | - | - |
| 1777462919 | 20° C | 41% | 1020.3 hPa | - | - | - | - |
| 1777462019 | 20° C | 41% | 1020.3 hPa | - | - | - | - |
| 1777461119 | 21.11° C | 41% | 1020.5 hPa | - | - | - | - |
| 1777460219 | 20.56° C | 42% | 1020.5 hPa | - | - | - | - |
| 1777459318 | 18.33° C | 44% | 1020.6 hPa | - | - | - | - |
| 1777458418 | 17.22° C | 43% | 1020.7 hPa | - | - | - | - |
| 1777457518 | 18.89° C | 44% | 1020.6 hPa | - | - | - | - |
| 1777456618 | 16.67° C | 43% | 1020.6 hPa | - | - | - | - |
| 1777455718 | 16.67° C | 44% | 1020.6 hPa | - | - | - | - |
| 1777454818 | 18.33° C | 45% | 1020.7 hPa | - | - | - | - |
| 1777453918 | 16.11° C | 47% | 1020.6 hPa | - | - | - | - |
| 1777453018 | 15° C | 48% | 1020.6 hPa | - | - | - | - |
| 1777452118 | 15° C | 50% | 1020.5 hPa | - | - | - | - |
| 1777451218 | 16.11° C | 50% | 1020.6 hPa | - | - | - | - |
| 1777450318 | 15.56° C | 52% | 1020.5 hPa | - | - | - | - |
| 1777449417 | 13.89° C | 57% | 1020.5 hPa | - | - | - | - |
| 1777448517 | 12.78° C | 54% | 1020.5 hPa | - | - | - | - |
| 1777447617 | 12.22° C | 56% | 1020.4 hPa | - | - | - | - |
| 1777446717 | 12.22° C | 56% | 1020.4 hPa | - | - | - | - |
| 1777445817 | 11.11° C | 57% | 1020.4 hPa | - | - | - | - |
| 1777444917 | 11.67° C | 57% | 1020.4 hPa | - | - | - | - |
| 1777444017 | 12.22° C | 56% | 1020.3 hPa | - | - | - | - |
| 1777443117 | 11.11° C | 57% | 1020.1 hPa | - | - | - | - |
* Rain since midnight (hover to see other rain measurements)
** Current wind speed in m/s (hover to see current wind gust speed)